User: anonymous   Login
Location: Unspecified
(0.0000°N, 0.0000°E)
Time: 23:19:31
(UTC+00:00)
Language:

AGGIESAT 4 - Orbit

View from above orbital plane
View from above orbital plane
View from above satellite
View from above satellite

Ground track
Ground track

The orbit data is extracted from the following two-line orbital elements,

1 41314U 98067HQ  17141.36029568 +.00308124 +52415-4 +51602-3 0  9992
2 41314 051.6204 115.1103 0005982 061.8162 298.3452 16.02300404074838
Epoch (UTC): 21 May 2017 08:38:49
Eccentricity: 0.0005982
inclination: 51.6204°
perigee height: 264 km
apogee height: 272 km
right ascension of ascending node: 115.1103°
argument of perigee: 61.8162°
revolutions per day: 16.02300404
mean anomaly at epoch: 298.3452°
orbit number at epoch: 7483

The dashed part of the orbit path shows where the satellite is in the earth's shadow,  

DLR